ISS DEB (ROSA)

Last updated on Feb. 4, 2018, 12:15 a.m. UTC

1 42813U 98067MT  18034.62290082  .15228575  12406-4  85364-3 0  9994
2 42813  51.6149 299.9923 0007135 247.0242 113.0033 16.41949671 35003

Satellite is not in orbit.